Theta_e
362 361 362 361 361 360 360 359 359 359 359 359 360 359 359 360 359 359 359 358 359 358 358 358 358 358 356 357 356 355 355 353 353 352 352 353 353 354 356 355 355 355
355 355 356 357 358 358 358 358 359 359 360 360 360 360 360 360 360 360 359 359 359 358 358 358 358 358 357 357 356 355 354 354 353 353 353 353 353 353 355 356 356 355
350 350 351 353 355 355 355 357 357 359 360 360 358 359 360 360 360 360 359 359 359 359 359 359 358 358 357 356 356 354 354 354 354 353 353 354 352 353 354 355 355 355
349 350 352 352 354 354 353 355 356 357 359 359 358 359 359 358 358 359 359 359 359 359 359 359 358 358 357 357 355 354 354 354 354 354 353 354 353 353 354 355 355 355
350 350 352 352 352 352 351 353 355 356 357 358 359 360 359 359 358 358 359 359 359 359 358 359 358 358 357 357 355 355 355 354 354 354 354 354 354 354 355 356 356 356
349 350 351 352 351 351 352 353 355 356 357 358 358 359 360 359 359 359 358 358 358 358 357 357 358 358 358 357 357 356 356 355 354 354 354 355 354 355 356 356 356 356
348 349 350 351 352 352 353 354 354 355 355 356 356 357 359 360 360 359 358 358 358 357 357 357 357 357 358 357 357 357 356 356 355 355 354 354 354 355 355 356 356 356
347 349 349 350 352 352 352 352 351 353 354 354 355 355 358 359 359 359 358 357 358 357 357 356 355 356 356 355 356 356 357 356 356 355 355 354 354 355 355 356 356 356
346 348 349 350 351 351 351 350 349 350 352 353 354 355 356 357 358 358 357 357 357 357 357 355 354 354 354 353 353 355 355 355 356 355 355 354 354 355 356 356 357 358
345 347 348 349 349 350 351 350 348 347 349 351 354 354 355 356 357 357 356 357 357 357 356 355 355 354 354 355 354 354 354 354 355 356 354 355 355 354 355 356 357 358
345 346 347 348 349 349 349 349 348 348 348 351 352 353 354 355 356 356 356 356 356 356 355 355 355 354 355 356 354 353 354 355 355 355 355 355 355 354 355 356 357 358
345 346 346 347 347 348 349 349 350 349 349 350 350 351 352 353 355 355 356 356 357 356 356 355 355 354 354 355 353 352 354 354 354 354 354 354 354 356 356 356 357 358
345 344 344 345 346 348 348 350 350 350 350 350 349 350 351 351 352 353 355 356 356 357 357 356 355 354 353 354 353 352 353 354 354 354 353 353 354 355 357 357 357 358
343 343 343 345 346 347 348 349 350 351 351 350 350 350 350 350 350 352 354 355 355 356 356 355 355 354 353 352 352 352 352 353 353 353 354 354 354 355 356 358 358 358
342 343 343 344 346 347 348 348 349 350 351 351 350 348 347 348 349 352 353 354 354 354 354 355 355 354 354 352 352 352 352 352 352 352 353 354 354 355 356 358 358 358
342 343 343 345 345 347 347 348 349 350 351 350 349 347 346 346 348 351 352 353 353 352 352 353 353 354 353 352 352 352 352 353 353 352 353 353 354 355 356 358 358 359
342 343 344 345 346 347 347 348 349 350 350 350 348 346 344 344 347 350 351 351 351 351 351 352 352 353 353 352 352 352 352 352 352 352 352 352 354 355 357 358 359 359
342 343 344 345 346 347 348 349 349 349 348 347 346 345 344 343 345 348 350 350 349 349 350 351 351 352 353 354 353 353 352 352 352 353 353 353 353 355 356 359 359 359
343 344 345 345 346 347 347 347 347 346 346 345 344 343 343 343 344 345 348 349 349 349 350 351 351 352 353 354 354 354 353 353 353 353 354 354 354 355 357 359 359 359
343 344 345 346 346 347 346 346 345 345 344 343 343 343 342 343 343 344 345 347 348 349 350 351 352 352 353 354 354 354 353 353 353 354 355 355 355 355 356 359 360 359
343 344 345 345 345 345 346 345 344 344 343 343 343 343 343 343 343 343 344 346 348 349 349 351 353 353 354 354 354 354 353 352 353 354 355 355 355 356 357 358 359 358
344 345 345 345 345 345 346 345 344 344 344 344 344 343 344 343 343 344 344 344 346 348 348 350 352 352 353 354 353 354 354 353 353 353 354 356 356 356 357 357 357 357
344 345 344 344 345 345 345 345 344 344 344 344 344 344 344 344 344 344 344 344 345 347 348 350 350 351 351 352 353 354 354 353 352 351 354 356 356 357 357 357 357 357
344 344 345 345 345 345 344 344 344 344 344 344 344 344 345 344 345 344 344 345 346 347 348 349 349 350 351 352 352 353 354 354 351 350 352 354 355 356 355 356 356 356
343 343 344 345 344 344 343 343 344 343 344 344 344 345 345 344 344 344 344 345 345 345 346 348 349 350 351 352 353 353 354 354 350 349 350 351 353 354 354 354 354 355
343 343 343 343 343 343 343 343 343 343 343 344 344 344 345 344 344 344 344 345 345 345 346 347 348 349 349 351 352 353 354 354 350 348 348 350 353 354 353 353 353 354
Wind_Speed
20 21 22 24 26 28 29 30 29 29 29 30 30 30 31 31 31 29 28 29 30 32 33 33 32 31 31 31 31 32 31 29 29 30 30 29 28 29 30 29 28 27
13 14 16 19 22 24 26 28 30 30 30 30 31 32 32 32 31 30 30 30 30 32 33 33 34 33 33 33 33 33 32 31 30 30 30 29 28 29 30 30 28 27
15 16 17 18 19 20 21 22 25 26 26 27 27 29 30 30 30 30 30 30 30 31 32 33 34 34 33 33 33 33 33 32 31 31 30 29 28 28 30 30 28 27
19 19 19 20 21 21 21 21 22 22 23 24 24 25 27 27 28 29 30 30 31 32 32 32 33 34 33 33 33 33 33 32 33 32 31 31 30 29 30 29 28 27
20 20 20 21 23 25 26 25 24 23 23 23 23 23 24 25 27 29 29 29 30 31 32 32 33 33 33 33 33 33 33 32 32 32 31 31 31 30 30 29 28 27
23 23 23 23 24 24 26 26 26 25 24 24 24 24 23 23 25 27 28 28 28 30 30 30 31 32 33 33 33 33 33 33 32 32 31 31 31 30 30 29 28 28
24 24 24 24 24 23 25 26 27 26 25 25 25 25 24 23 24 25 26 27 28 31 32 31 31 31 31 32 32 33 33 32 32 31 31 32 32 31 31 30 29 29
23 24 24 24 24 24 24 26 27 27 26 26 26 26 26 25 24 25 26 27 29 32 34 33 30 28 28 27 27 31 32 31 31 31 31 33 32 32 33 32 31 30
23 24 24 25 25 25 25 25 26 27 27 26 26 26 26 26 25 25 26 28 29 31 32 32 29 27 28 27 24 23 25 28 29 31 32 33 34 34 35 34 32 31
24 24 24 25 26 27 27 26 26 27 27 26 26 26 27 27 26 25 26 27 28 29 30 31 30 29 32 35 33 28 29 34 35 34 34 35 36 37 37 36 34 33
25 25 24 25 27 28 28 28 27 26 26 26 25 26 27 28 27 26 26 26 28 29 30 29 29 31 34 39 38 32 31 38 40 38 37 36 37 38 39 37 36 36
25 25 25 26 27 28 29 28 28 27 26 25 25 25 26 27 27 27 26 26 27 28 29 29 30 32 34 36 35 30 29 33 36 36 36 36 36 37 38 38 37 37
25 26 27 27 27 28 28 29 29 28 26 26 25 25 25 27 28 28 27 26 26 27 29 29 30 32 33 34 34 33 33 32 33 35 37 37 36 36 36 37 38 38
26 27 27 27 27 27 28 28 29 28 27 25 25 25 26 27 28 28 27 27 27 27 28 29 30 32 34 34 35 35 35 35 36 38 39 39 38 36 35 36 39 39
27 27 27 27 28 27 28 28 28 28 27 25 24 25 27 28 28 28 27 26 26 27 27 29 30 32 34 35 36 36 37 37 38 38 38 38 37 37 35 35 38 39
27 27 28 28 28 28 28 28 28 27 27 26 25 27 28 28 28 28 27 26 26 27 27 29 31 33 35 36 36 37 36 36 37 38 38 37 36 34 33 34 37 38
28 28 28 28 28 29 28 27 27 27 27 28 28 29 29 29 28 28 28 27 27 28 28 29 32 34 34 34 36 37 36 34 35 36 36 36 35 32 32 34 36 36
28 28 28 28 28 28 28 27 26 26 28 30 30 30 29 28 28 28 29 28 27 27 28 29 31 34 33 33 34 36 36 35 35 35 34 34 34 33 32 33 33 34
27 28 28 28 27 27 27 27 27 27 29 30 31 30 29 28 28 29 29 29 27 27 28 29 31 32 33 34 34 35 36 37 37 35 33 32 33 33 32 32 31 31
27 27 27 27 26 26 27 28 28 28 29 30 30 30 28 28 29 30 30 29 27 26 27 29 30 31 33 34 34 34 34 36 38 36 33 32 32 32 32 32 31 31
25 25 25 25 26 27 27 28 28 29 29 30 29 28 28 29 29 29 30 29 27 27 27 29 30 30 31 33 34 33 33 35 38 37 34 32 32 32 32 33 34 35
24 24 24 26 27 27 27 27 28 29 29 29 28 28 29 29 28 29 30 29 28 27 27 28 29 29 30 32 33 31 31 33 36 36 33 32 33 32 32 34 38 39
24 24 25 26 26 25 26 27 28 29 30 29 27 27 28 28 28 28 29 29 29 27 26 27 29 29 29 31 32 30 30 31 34 34 33 33 33 34 35 36 38 36
24 25 25 26 25 26 27 28 29 29 30 29 27 27 28 28 28 28 29 29 28 28 27 27 28 29 29 30 30 29 29 30 31 32 32 32 32 34 36 35 35 35
25 25 25 26 26 27 28 29 30 30 30 29 28 28 28 28 28 27 28 28 28 29 29 28 29 30 29 29 29 28 28 28 30 30 30 31 33 35 34 30 31 35
25 25 26 26 27 28 29 30 30 29 29 29 29 29 27 27 27 27 27 28 28 28 28 28 28 29 30 29 28 27 26 27 29 30 30 31 33 32 27 24 29 35
Wind_Direction
267 273 276 277 275 274 273 271 270 267 265 263 260 259 260 260 260 257 254 252 250 249 248 246 246 246 247 246 245 244 244 243 243 245 245 246 249 247 242 239 238 239
291 294 292 288 284 282 279 276 275 271 268 266 262 260 260 260 261 259 257 255 252 251 250 250 250 248 247 246 244 242 243 242 241 241 242 243 247 247 245 242 240 240
307 306 303 298 294 292 290 286 283 280 279 277 273 269 265 263 263 261 259 257 255 253 251 251 251 249 247 244 242 240 239 239 239 239 240 242 246 247 245 243 243 243
309 305 301 297 295 296 297 296 293 292 289 285 282 277 271 271 268 263 260 258 255 254 252 250 250 249 247 243 240 238 238 238 239 239 239 242 245 246 244 243 242 242
311 306 301 297 296 297 299 298 296 294 291 287 286 282 278 277 271 263 260 258 256 255 253 250 248 246 244 242 238 236 236 237 238 238 238 240 241 242 241 240 239 239
311 307 303 300 298 298 298 297 296 294 292 289 288 286 284 279 269 262 260 259 258 257 255 253 251 246 242 239 237 235 235 235 236 236 235 236 238 238 238 237 237 237
308 306 303 300 298 297 296 296 296 294 293 292 290 288 284 279 273 269 266 262 257 254 253 253 252 249 245 239 234 233 233 234 235 235 236 237 237 238 237 237 237 236
304 304 302 299 296 294 294 294 295 295 294 294 293 291 287 283 280 278 274 268 261 257 255 253 252 253 253 249 242 236 233 234 235 235 236 237 237 237 236 235 234 235
301 301 300 298 295 294 293 294 295 295 294 293 292 292 290 286 283 282 278 271 264 261 259 254 251 252 253 256 257 249 239 236 236 235 236 236 234 234 234 232 230 230
298 298 298 296 295 294 293 294 296 297 296 293 292 292 289 286 284 282 280 274 266 262 259 253 249 247 246 246 246 240 231 229 230 230 232 233 233 233 233 231 228 227
294 295 295 294 293 293 293 294 297 299 298 295 293 292 289 287 284 282 279 275 268 263 259 253 248 246 246 246 242 236 231 230 230 229 229 230 232 233 232 230 228 227
291 293 294 293 293 294 295 296 296 296 296 295 294 293 291 289 287 283 279 274 270 266 260 253 248 246 247 248 244 239 236 235 235 235 235 233 233 233 233 230 228 227
289 292 294 294 294 295 295 295 294 292 292 294 296 294 291 290 288 284 280 276 271 266 260 255 250 247 247 245 241 236 232 232 233 234 235 236 235 235 235 232 229 229
289 293 295 295 294 294 294 293 292 290 289 292 295 295 292 290 288 284 280 277 273 266 261 258 252 249 247 244 240 236 233 232 232 233 233 233 234 236 236 234 231 230
291 294 295 295 294 292 292 292 291 289 288 289 292 294 294 291 287 283 279 276 274 270 264 258 253 250 249 244 240 238 235 233 233 234 235 234 234 235 236 235 233 230
295 296 296 296 294 292 291 290 289 288 287 287 289 292 294 291 286 280 275 272 271 270 265 258 253 252 250 245 241 238 236 234 232 233 234 235 235 234 234 234 234 231
297 297 296 294 293 291 290 288 287 287 286 286 288 290 291 289 284 277 272 270 269 268 264 258 254 253 250 245 241 239 236 234 234 233 233 233 233 232 231 232 232 231
297 296 295 293 291 290 289 288 287 286 285 286 287 287 287 286 283 277 272 269 268 266 263 258 255 254 251 247 244 242 239 237 236 235 232 231 231 230 229 230 230 230
297 295 293 292 290 290 290 290 288 285 285 286 286 286 285 283 281 279 274 269 266 264 262 259 255 253 250 248 248 246 243 239 237 236 234 232 230 228 227 228 228 228
298 296 293 292 292 292 291 290 288 286 286 286 285 285 283 281 281 280 276 271 266 262 262 259 256 252 251 251 251 251 248 242 238 237 236 234 232 228 225 224 224 224
299 296 295 294 294 292 290 289 288 287 287 286 285 284 282 281 281 279 277 273 267 262 261 261 258 254 252 252 253 254 252 246 240 238 236 235 234 230 225 222 222 223
299 295 294 294 293 291 288 288 288 287 287 286 285 284 283 282 279 277 275 272 268 264 260 260 260 257 253 253 254 255 254 246 238 235 233 232 231 228 224 223 223 224
300 296 294 294 292 290 288 288 288 287 287 286 285 283 283 282 279 277 274 271 268 265 261 259 260 259 256 255 254 254 252 243 233 230 231 230 227 225 224 222 222 221
301 298 295 293 291 289 289 288 288 288 288 287 284 281 282 282 282 279 275 270 267 265 263 260 260 260 258 256 254 252 251 242 229 226 230 231 228 226 226 224 221 220
302 298 294 291 290 289 290 289 289 289 289 288 285 282 282 283 284 281 275 270 268 268 267 262 260 261 260 257 253 251 250 240 226 222 227 230 230 229 227 224 222 222
302 298 294 293 292 292 293 292 291 291 291 290 287 284 283 283 284 281 274 270 269 270 268 262 259 259 260 258 254 249 246 236 221 216 219 224 228 229 225 219 220 224